Webcam

Webcam Flugplatz Krefeld EDLK

Kurzinfo

ICAO-Code: EDLK
Höhe ü. NN: 141 ft / 43 m
Platzfrequenz: 120.675 MHz - Krefeld Info
Landebahn: 06 - 24
Abmessungen: 640 x 30m
Belag: Gras

Tankstelle: Nein
Betriebszeit: PPR

Landegebühr:                   5,00 €
Abstellgebühr je Tag:        5,00 €
Gewerbl. Landungen:     25,00 €

Flugzeugführer oder Flugzeughalter, die Mitglied
in einem der am Egelsberg ansässigen Verein sind,
werden von den o.g. Gebühren befreit.
Alle Preise sind Bruttopreise.

METAR / TAF Düsseldorf

[source: ADDS]
METAR
EDDL 162350Z 27007KT 9999 FEW006 BKN008 03/02 Q1018 TEMPO SCT012 =
TAF
TAF EDDL 162300Z 1700/1806 26007KT 9999 BKN008 TEMPO 1700/1709 SCT010 BKN030 PROB30 TEMPO 1703/1706 4500 SHSNRA BKN006TCU BECMG 1709/1712 SCT030 BECMG 1714/1718 20007KT BECMG 1720/1724 18012KT BECMG 1721/1724 4000 -SNRA BKN013 PROB30 TEMPO 1723/1801 1400 SN BKN007 TEMPO 1801/1806 2500 RADZ BKN004 =

Anflug

Folgende Informationen sind ohne Gewähr und ersetzen auf keinen Fall die Angaben in der AIP!